"Sample Date","Sample Time","Sensor Name","Sample Value","Units","Flow Rate","Sample Interval","Sample Volume","Laser Status","Number Channels","Micron Size 0","Counts/Channel 0","Micron Size 1","Counts/Channel 1","Micron Size 2","Counts/Channel 2","Micron Size 3","Counts/Channel 3","Micron Size 4","Counts/Channel 4","Micron Size 5","Counts/Channel 5","Micron Size 6","Counts/Channel 6","Micron Size 7","Counts/Channel 7","Micron Size 8","Counts/Channel 8","Micron Size 9","Counts/Channel 9","Micron Size 10","Counts/Channel 10","Micron Size 11","Counts/Channel 11","Micron Size 12","Counts/Channel 12","Micron Size 13","Counts/Channel 13","Micron Size 14","Counts/Channel 14","Micron Size 15","Counts/Channel 15","Micron Size 16","Counts/Channel 16","Micron Size 17","Counts/Channel 17","Micron Size 18","Counts/Channel 18","Micron Size 19","Counts/Channel 19","Micron Size 20","Counts/Channel 20","Micron Size 21","Counts/Channel 21","Micron Size 22","Counts/Channel 22","Micron Size 23","Counts/Channel 23","Micron Size 24","Counts/Channel 24","Micron Size 25","Counts/Channel 25","Micron Size 26","Counts/Channel 26","Micron Size 27","Counts/Channel 27","Micron Size 28","Counts/Channel 28","Micron Size 29","Counts/Channel 29","Micron Size 30","Counts/Channel 30","Micron Size 31","Counts/Channel 31"
"07/04/06","06:00:02","AMMA06",87112.000,"cc",28346.723,6.00,2834.672,1,6,0.100,35558.000,0.200,38814.000,0.300,10967.000,0.500,1099.000,1.000,673.000,5.000,1.000
"07/04/06","06:00:08","AMMA06",87303.000,"cc",28361.059,6.00,2836.106,1,6,0.100,35576.000,0.200,38889.000,0.300,10950.000,0.500,1143.000,1.000,744.000,5.000,1.000
"07/04/06","06:00:14","AMMA06",86959.000,"cc",28277.914,6.00,2827.792,1,6,0.100,35315.000,0.200,38848.000,0.300,10967.000,0.500,1111.000,1.000,718.000,5.000,0
"07/04/06","06:00:20","AMMA06",89271.000,"cc",28289.910,6.00,2828.991,1,6,0.100,36012.000,0.200,39925.000,0.300,11454.000,0.500,1171.000,1.000,708.000,5.000,1.000
"07/04/06","06:00:26","AMMA06",90224.000,"cc",28364.350,6.00,2836.435,1,6,0.100,36083.000,0.200,40601.000,0.300,11637.000,0.500,1156.000,1.000,747.000,5.000,0
"07/04/06","06:00:32","AMMA06",89064.000,"cc",28335.193,6.00,2833.520,1,6,0.100,35985.000,0.200,39847.000,0.300,11413.000,0.500,1131.000,1.000,687.000,5.000,1.000
"07/04/06","06:00:38","AMMA06",89938.000,"cc",28320.650,6.00,2832.065,1,6,0.100,36044.000,0.200,40373.000,0.300,11583.000,0.500,1198.000,1.000,735.000,5.000,5.000
"07/04/06","06:00:44","AMMA06",90707.000,"cc",28287.758,6.00,2828.776,1,6,0.100,36167.000,0.200,40913.000,0.300,11730.000,0.500,1155.000,1.000,742.000,5.000,0
"07/04/06","06:00:50","AMMA06",90227.000,"cc",28324.398,6.00,2832.440,1,6,0.100,35816.000,0.200,40823.000,0.300,11731.000,0.500,1139.000,1.000,718.000,5.000,0
"07/04/06","06:00:56","AMMA06",90339.000,"cc",28297.246,6.00,2829.725,1,6,0.100,35941.000,0.200,40973.000,0.300,11575.000,0.500,1125.000,1.000,724.000,5.000,1.000
"07/04/06","06:01:02","AMMA06",90092.000,"cc",28343.641,6.00,2834.364,1,6,0.100,36227.000,0.200,40789.000,0.300,11155.000,0.500,1129.000,1.000,792.000,5.000,0
"07/04/06","06:01:08","AMMA06",90273.000,"cc",28312.674,6.00,2831.268,1,6,0.100,36112.000,0.200,41156.000,0.300,11112.000,0.500,1145.000,1.000,746.000,5.000,2.000
"07/04/06","06:01:14","AMMA06",90153.000,"cc",28360.406,6.00,2836.041,1,6,0.100,36050.000,0.200,40969.000,0.300,11199.000,0.500,1175.000,1.000,757.000,5.000,3.000
"07/04/06","06:01:20","AMMA06",88600.000,"cc",28233.658,6.00,2823.366,1,6,0.100,35825.000,0.200,40156.000,0.300,10734.000,0.500,1153.000,1.000,732.000,5.000,0
"07/04/06","06:01:26","AMMA06",88007.000,"cc",28321.688,6.00,2832.169,1,6,0.100,35583.000,0.200,40265.000,0.300,10274.000,0.500,1195.000,1.000,690.000,5.000,0
"07/04/06","06:01:32","AMMA06",86865.000,"cc",28302.895,6.00,2830.290,1,6,0.100,35433.000,0.200,39734.000,0.300,9814.000,0.500,1120.000,1.000,763.000,5.000,1.000
"07/04/06","06:01:38","AMMA06",86788.000,"cc",28335.215,6.00,2833.522,1,6,0.100,34988.000,0.200,39785.000,0.300,10202.000,0.500,1133.000,1.000,679.000,5.000,1.000
"07/04/06","06:01:44","AMMA06",87132.000,"cc",28357.246,6.00,2835.725,1,6,0.100,35529.000,0.200,39712.000,0.300,10090.000,0.500,1114.000,1.000,686.000,5.000,1.000
"07/04/06","06:01:50","AMMA06",82250.000,"cc",28285.023,6.00,2828.502,1,6,0.100,34110.000,0.200,37454.000,0.300,8806.000,0.500,1138.000,1.000,740.000,5.000,2.000
"07/04/06","06:01:56","AMMA06",81097.000,"cc",28290.996,6.00,2829.100,1,6,0.100,33838.000,0.200,37291.000,0.300,8106.000,0.500,1129.000,1.000,733.000,5.000,0
"07/04/06","06:02:02","AMMA06",79986.000,"cc",28347.174,6.00,2834.718,1,6,0.100,33289.000,0.200,36750.000,0.300,8115.000,0.500,1133.000,1.000,699.000,5.000,0
"07/04/06","06:02:08","AMMA06",80068.000,"cc",28320.320,6.00,2832.032,1,6,0.100,33608.000,0.200,36628.000,0.300,7924.000,0.500,1176.000,1.000,731.000,5.000,1.000
"07/04/06","06:02:14","AMMA06",80032.000,"cc",28335.400,6.00,2833.540,1,6,0.100,33282.000,0.200,36820.000,0.300,8105.000,0.500,1107.000,1.000,717.000,5.000,1.000
"07/04/06","06:02:20","AMMA06",78453.000,"cc",28317.986,6.00,2831.799,1,6,0.100,32947.000,0.200,35937.000,0.300,7644.000,0.500,1181.000,1.000,743.000,5.000,1.000
"07/04/06","06:02:26","AMMA06",78049.000,"cc",28296.158,6.00,2829.616,1,6,0.100,32609.000,0.200,36059.000,0.300,7548.000,0.500,1146.000,1.000,687.000,5.000,0
"07/04/06","06:02:32","AMMA06",77577.000,"cc",28284.656,6.00,2828.466,1,6,0.100,32863.000,0.200,35596.000,0.300,7292.000,0.500,1129.000,1.000,697.000,5.000,0
"07/04/06","06:02:38","AMMA06",75829.000,"cc",28344.656,6.00,2834.466,1,6,0.100,32616.000,0.200,34466.000,0.300,6919.000,0.500,1088.000,1.000,740.000,5.000,0
"07/04/06","06:02:44","AMMA06",75458.000,"cc",28391.658,6.00,2839.166,1,6,0.100,32655.000,0.200,34168.000,0.300,6776.000,0.500,1104.000,1.000,755.000,5.000,0
"07/04/06","06:02:50","AMMA06",74281.000,"cc",28289.082,6.00,2828.908,1,6,0.100,32337.000,0.200,33787.000,0.300,6414.000,0.500,1042.000,1.000,700.000,5.000,1.000
"07/04/06","06:02:56","AMMA06",74013.000,"cc",28339.889,6.00,2833.989,1,6,0.100,32739.000,0.200,33251.000,0.300,6211.000,0.500,1092.000,1.000,720.000,5.000,0
"07/04/06","06:03:02","AMMA06",74111.000,"cc",28313.529,6.00,2831.353,1,6,0.100,32589.000,0.200,33295.000,0.300,6364.000,0.500,1084.000,1.000,777.000,5.000,2.000
"07/04/06","06:03:08","AMMA06",73819.000,"cc",28246.195,6.00,2824.620,1,6,0.100,32212.000,0.200,33453.000,0.300,6292.000,0.500,1130.000,1.000,731.000,5.000,1.000
"07/04/06","06:03:14","AMMA06",73009.000,"cc",28299.301,6.00,2829.930,1,6,0.100,32654.000,0.200,32519.000,0.300,5981.000,0.500,1139.000,1.000,715.000,5.000,1.000
"07/04/06","06:03:20","AMMA06",72784.000,"cc",28368.535,6.00,2836.854,1,6,0.100,32680.000,0.200,32423.000,0.300,5810.000,0.500,1197.000,1.000,673.000,5.000,1.000
"07/04/06","06:03:26","AMMA06",72070.000,"cc",28284.893,6.00,2828.490,1,6,0.100,32384.000,0.200,32051.000,0.300,5792.000,0.500,1170.000,1.000,673.000,5.000,0
"07/04/06","06:03:32","AMMA06",72270.000,"cc",28311.680,6.00,2831.168,1,6,0.100,32386.000,0.200,32125.000,0.300,5864.000,0.500,1145.000,1.000,750.000,5.000,0
"07/04/06","06:03:38","AMMA06",72019.000,"cc",28359.613,6.00,2835.961,1,6,0.100,32620.000,0.200,31871.000,0.300,5669.000,0.500,1134.000,1.000,724.000,5.000,1.000
"07/04/06","06:03:44","AMMA06",71321.000,"cc",28300.117,6.00,2830.012,1,6,0.100,32385.000,0.200,31582.000,0.300,5550.000,0.500,1137.000,1.000,667.000,5.000,0
"07/04/06","06:03:50","AMMA06",71957.000,"cc",28317.039,6.00,2831.704,1,6,0.100,32839.000,0.200,31730.000,0.300,5536.000,0.500,1097.000,1.000,755.000,5.000,0
"07/04/06","06:03:56","AMMA06",71585.000,"cc",28318.190,6.00,2831.819,1,6,0.100,32723.000,0.200,31668.000,0.300,5443.000,0.500,1070.000,1.000,681.000,5.000,0
"07/04/06","06:04:02","AMMA06",72572.000,"cc",28320.824,6.00,2832.083,1,6,0.100,33083.000,0.200,31996.000,0.300,5663.000,0.500,1119.000,1.000,711.000,5.000,0
"07/04/06","06:04:08","AMMA06",71282.000,"cc",28328.348,6.00,2832.835,1,6,0.100,32490.000,0.200,31361.000,0.300,5592.000,0.500,1125.000,1.000,713.000,5.000,1.000
"07/04/06","06:04:14","AMMA06",72195.000,"cc",28339.959,6.00,2833.996,1,6,0.100,32905.000,0.200,31902.000,0.300,5621.000,0.500,1076.000,1.000,691.000,5.000,0
"07/04/06","06:04:20","AMMA06",72290.000,"cc",28304.678,6.00,2830.468,1,6,0.100,33115.000,0.200,31860.000,0.300,5517.000,0.500,1062.000,1.000,736.000,5.000,0
"07/04/06","06:04:26","AMMA06",71529.000,"cc",28267.773,6.00,2826.778,1,6,0.100,32582.000,0.200,31559.000,0.300,5620.000,0.500,1076.000,1.000,692.000,5.000,0
"07/04/06","06:04:32","AMMA06",72119.000,"cc",28329.336,6.00,2832.934,1,6,0.100,32785.000,0.200,31841.000,0.300,5706.000,0.500,1115.000,1.000,672.000,5.000,0
"07/04/06","06:04:38","AMMA06",71244.000,"cc",28258.014,6.00,2825.802,1,6,0.100,32545.000,0.200,31301.000,0.300,5604.000,0.500,1095.000,1.000,698.000,5.000,1.000
"07/04/06","06:04:44","AMMA06",72261.000,"cc",28291.723,6.00,2829.172,1,6,0.100,33027.000,0.200,31810.000,0.300,5561.000,0.500,1141.000,1.000,721.000,5.000,1.000
"07/04/06","06:04:50","AMMA06",71975.000,"cc",28389.941,6.00,2838.994,1,6,0.100,33111.000,0.200,31303.000,0.300,5753.000,0.500,1095.000,1.000,712.000,5.000,1.000
"07/04/06","06:04:56","AMMA06",71731.000,"cc",28307.865,6.00,2830.787,1,6,0.100,32947.000,0.200,31279.000,0.300,5704.000,0.500,1094.000,1.000,706.000,5.000,1.000
"07/04/06","06:05:02","AMMA06",71707.000,"cc",28266.979,6.00,2826.698,1,6,0.100,33104.000,0.200,31092.000,0.300,5770.000,0.500,1070.000,1.000,671.000,5.000,0
"07/04/06","06:05:08","AMMA06",71665.000,"cc",28331.246,6.00,2833.125,1,6,0.100,32786.000,0.200,31426.000,0.300,5618.000,0.500,1134.000,1.000,699.000,5.000,2.000
"07/04/06","06:05:14","AMMA06",71003.000,"cc",28350.195,6.00,2835.020,1,6,0.100,32547.000,0.200,31230.000,0.300,5505.000,0.500,1046.000,1.000,675.000,5.000,0
"07/04/06","06:05:20","AMMA06",71716.000,"cc",28291.783,6.00,2829.179,1,6,0.100,32950.000,0.200,31352.000,0.300,5615.000,0.500,1112.000,1.000,687.000,5.000,0
"07/04/06","06:05:26","AMMA06",71615.000,"cc",28299.512,6.00,2829.951,1,6,0.100,32522.000,0.200,31673.000,0.300,5638.000,0.500,1111.000,1.000,671.000,5.000,0
"07/04/06","06:05:32","AMMA06",70621.000,"cc",28379.234,6.00,2837.924,1,6,0.100,32403.000,0.200,30859.000,0.300,5583.000,0.500,1100.000,1.000,675.000,5.000,1.000
"07/04/06","06:05:38","AMMA06",71317.000,"cc",28283.131,6.00,2828.313,1,6,0.100,32690.000,0.200,31499.000,0.300,5436.000,0.500,1024.000,1.000,666.000,5.000,2.000
"07/04/06","06:05:44","AMMA06",70988.000,"cc",28316.246,6.00,2831.625,1,6,0.100,32406.000,0.200,31379.000,0.300,5443.000,0.500,1067.000,1.000,693.000,5.000,0
"07/04/06","06:05:50","AMMA06",71058.000,"cc",28337.799,6.00,2833.780,1,6,0.100,32715.000,0.200,31071.000,0.300,5526.000,0.500,1091.000,1.000,655.000,5.000,0
"07/04/06","06:05:56","AMMA06",70923.000,"cc",28309.365,6.00,2830.937,1,6,0.100,32676.000,0.200,31026.000,0.300,5496.000,0.500,1072.000,1.000,653.000,5.000,0
"07/04/06","06:06:02","AMMA06",70594.000,"cc",28333.574,6.00,2833.358,1,6,0.100,32792.000,0.200,30774.000,0.300,5357.000,0.500,999.000,1.000,672.000,5.000,0
"07/04/06","06:06:08","AMMA06",70333.000,"cc",28325.523,6.00,2832.553,1,6,0.100,32272.000,0.200,30851.000,0.300,5458.000,0.500,1113.000,1.000,639.000,5.000,0
"07/04/06","06:06:14","AMMA06",70528.000,"cc",28313.324,6.00,2831.333,1,6,0.100,32506.000,0.200,30900.000,0.300,5402.000,0.500,1054.000,1.000,665.000,5.000,1.000
"07/04/06","06:06:20","AMMA06",70477.000,"cc",28319.412,6.00,2831.941,1,6,0.100,32548.000,0.200,30821.000,0.300,5325.000,0.500,1117.000,1.000,666.000,5.000,0
"07/04/06","06:06:26","AMMA06",70951.000,"cc",28261.410,6.00,2826.141,1,6,0.100,32501.000,0.200,31114.000,0.300,5630.000,0.500,1041.000,1.000,665.000,5.000,0
"07/04/06","06:06:32","AMMA06",70899.000,"cc",28360.299,6.00,2836.030,1,6,0.100,32914.000,0.200,30773.000,0.300,5392.000,0.500,1129.000,1.000,690.000,5.000,1.000
"07/04/06","06:06:38","AMMA06",70029.000,"cc",28312.680,6.00,2831.268,1,6,0.100,32160.000,0.200,30529.000,0.300,5530.000,0.500,1088.000,1.000,721.000,5.000,1.000
"07/04/06","06:06:44","AMMA06",70117.000,"cc",28322.315,6.00,2832.232,1,6,0.100,32405.000,0.200,30546.000,0.300,5437.000,0.500,1064.000,1.000,665.000,5.000,0
"07/04/06","06:06:50","AMMA06",70138.000,"cc",28315.086,6.00,2831.509,1,6,0.100,32345.000,0.200,30662.000,0.300,5381.000,0.500,1051.000,1.000,699.000,5.000,0
"07/04/06","06:06:56","AMMA06",70527.000,"cc",28281.949,6.00,2828.195,1,6,0.100,32747.000,0.200,30585.000,0.300,5430.000,0.500,1092.000,1.000,673.000,5.000,0
"07/04/06","06:07:02","AMMA06",70998.000,"cc",28254.359,6.00,2825.436,1,6,0.100,32771.000,0.200,30918.000,0.300,5555.000,0.500,1083.000,1.000,671.000,5.000,0
"07/04/06","06:07:08","AMMA06",71235.000,"cc",28367.303,6.00,2836.731,1,6,0.100,32891.000,0.200,30932.000,0.300,5627.000,0.500,1109.000,1.000,676.000,5.000,0
"07/04/06","06:07:14","AMMA06",70537.000,"cc",28340.619,6.00,2834.062,1,6,0.100,32796.000,0.200,30551.000,0.300,5475.000,0.500,1048.000,1.000,667.000,5.000,0
"07/04/06","06:07:20","AMMA06",71022.000,"cc",28272.174,6.00,2827.218,1,6,0.100,33098.000,0.200,30638.000,0.300,5500.000,0.500,1117.000,1.000,669.000,5.000,0
"07/04/06","06:07:26","AMMA06",71148.000,"cc",28319.115,6.00,2831.912,1,6,0.100,32855.000,0.200,30939.000,0.300,5574.000,0.500,1139.000,1.000,640.000,5.000,1.000
"07/04/06","06:07:32","AMMA06",71488.000,"cc",28415.301,6.00,2841.530,1,6,0.100,33072.000,0.200,31002.000,0.300,5659.000,0.500,1080.000,1.000,674.000,5.000,1.000
"07/04/06","06:07:38","AMMA06",71561.000,"cc",28280.906,6.00,2828.091,1,6,0.100,32934.000,0.200,31306.000,0.300,5641.000,0.500,1021.000,1.000,658.000,5.000,1.000
"07/04/06","06:07:44","AMMA06",70895.000,"cc",28318.832,6.00,2831.883,1,6,0.100,32651.000,0.200,30969.000,0.300,5495.000,0.500,1105.000,1.000,674.000,5.000,1.000
"07/04/06","06:07:50","AMMA06",71102.000,"cc",28321.147,6.00,2832.115,1,6,0.100,32990.000,0.200,30873.000,0.300,5517.000,0.500,1074.000,1.000,647.000,5.000,1.000
"07/04/06","06:07:56","AMMA06",70761.000,"cc",28355.424,6.00,2835.543,1,6,0.100,32964.000,0.200,30574.000,0.300,5510.000,0.500,1059.000,1.000,652.000,5.000,2.000
"07/04/06","06:08:02","AMMA06",71047.000,"cc",28297.125,6.00,2829.713,1,6,0.100,32827.000,0.200,30991.000,0.300,5512.000,0.500,1021.000,1.000,696.000,5.000,0
"07/04/06","06:08:08","AMMA06",71124.000,"cc",28322.303,6.00,2832.231,1,6,0.100,32844.000,0.200,31036.000,0.300,5490.000,0.500,1088.000,1.000,665.000,5.000,1.000
"07/04/06","06:08:14","AMMA06",70853.000,"cc",28333.514,6.00,2833.352,1,6,0.100,32739.000,0.200,30904.000,0.300,5521.000,0.500,1070.000,1.000,619.000,5.000,0
"07/04/06","06:08:20","AMMA06",70235.000,"cc",28272.791,6.00,2827.279,1,6,0.100,32704.000,0.200,30428.000,0.300,5346.000,0.500,1086.000,1.000,670.000,5.000,1.000
"07/04/06","06:08:26","AMMA06",69989.000,"cc",28326.205,6.00,2832.621,1,6,0.100,32506.000,0.200,30410.000,0.300,5381.000,0.500,1037.000,1.000,655.000,5.000,0
"07/04/06","06:08:32","AMMA06",69862.000,"cc",28316.356,6.00,2831.636,1,6,0.100,32639.000,0.200,30261.000,0.300,5205.000,0.500,1091.000,1.000,666.000,5.000,0
"07/04/06","06:08:38","AMMA06",69835.000,"cc",28309.430,6.00,2830.943,1,6,0.100,32823.000,0.200,29979.000,0.300,5265.000,0.500,1092.000,1.000,676.000,5.000,0
"07/04/06","06:08:44","AMMA06",69244.000,"cc",28335.330,6.00,2833.533,1,6,0.100,32155.000,0.200,30217.000,0.300,5116.000,0.500,1081.000,1.000,675.000,5.000,0
"07/04/06","06:08:50","AMMA06",69679.000,"cc",28280.486,6.00,2828.049,1,6,0.100,32754.000,0.200,29941.000,0.300,5254.000,0.500,1094.000,1.000,636.000,5.000,0
"07/04/06","06:08:56","AMMA06",69692.000,"cc",28278.051,6.00,2827.805,1,6,0.100,32621.000,0.200,30190.000,0.300,5230.000,0.500,999.000,1.000,651.000,5.000,1.000
"07/04/06","06:09:02","AMMA06",69404.000,"cc",28315.033,6.00,2831.503,1,6,0.100,32347.000,0.200,30066.000,0.300,5178.000,0.500,1105.000,1.000,708.000,5.000,0
"07/04/06","06:09:08","AMMA06",69477.000,"cc",28316.596,6.00,2831.660,1,6,0.100,32306.000,0.200,30127.000,0.300,5333.000,0.500,1050.000,1.000,661.000,5.000,0
"07/04/06","06:09:14","AMMA06",69401.000,"cc",28359.176,6.00,2835.918,1,6,0.100,32467.000,0.200,29903.000,0.300,5254.000,0.500,1104.000,1.000,673.000,5.000,0
"07/04/06","06:09:20","AMMA06",69806.000,"cc",28271.523,6.00,2827.153,1,6,0.100,32833.000,0.200,29939.000,0.300,5203.000,0.500,1146.000,1.000,684.000,5.000,1.000
"07/04/06","06:09:26","AMMA06",69249.000,"cc",28315.229,6.00,2831.523,1,6,0.100,32746.000,0.200,29575.000,0.300,5128.000,0.500,1094.000,1.000,705.000,5.000,1.000
"07/04/06","06:09:32","AMMA06",68825.000,"cc",28304.313,6.00,2830.431,1,6,0.100,32347.000,0.200,29562.000,0.300,5233.000,0.500,1037.000,1.000,644.000,5.000,2.000
"07/04/06","06:09:38","AMMA06",68773.000,"cc",28331.315,6.00,2833.132,1,6,0.100,32383.000,0.200,29553.000,0.300,5088.000,0.500,1084.000,1.000,662.000,5.000,3.000
"07/04/06","06:09:44","AMMA06",68349.000,"cc",28345.475,6.00,2834.548,1,6,0.100,32200.000,0.200,29369.000,0.300,5069.000,0.500,1068.000,1.000,643.000,5.000,0
"07/04/06","06:09:50","AMMA06",68421.000,"cc",28374.068,6.00,2837.407,1,6,0.100,32117.000,0.200,29622.000,0.300,4934.000,0.500,1055.000,1.000,693.000,5.000,0
"07/04/06","06:09:56","AMMA06",68496.000,"cc",28269.457,6.00,2826.946,1,6,0.100,32398.000,0.200,29344.000,0.300,4993.000,0.500,1098.000,1.000,662.000,5.000,1.000
"07/04/06","06:10:02","AMMA06",68059.000,"cc",28303.975,6.00,2830.398,1,6,0.100,32141.000,0.200,29252.000,0.300,4995.000,0.500,997.000,1.000,674.000,5.000,0
"07/04/06","06:10:08","AMMA06",68032.000,"cc",28359.111,6.00,2835.911,1,6,0.100,32277.000,0.200,29130.000,0.300,4870.000,0.500,1097.000,1.000,658.000,5.000,0
"07/04/06","06:10:14","AMMA06",68133.000,"cc",28320.102,6.00,2832.010,1,6,0.100,32453.000,0.200,29098.000,0.300,4860.000,0.500,1051.000,1.000,671.000,5.000,0
"07/04/06","06:10:20","AMMA06",67984.000,"cc",28340.225,6.00,2834.023,1,6,0.100,32345.000,0.200,29101.000,0.300,4834.000,0.500,1016.000,1.000,688.000,5.000,0
"07/04/06","06:10:26","AMMA06",67430.000,"cc",28301.979,6.00,2830.198,1,6,0.100,31908.000,0.200,28881.000,0.300,4947.000,0.500,1031.000,1.000,662.000,5.000,1.000
"07/04/06","06:10:32","AMMA06",67962.000,"cc",28325.541,6.00,2832.554,1,6,0.100,32356.000,0.200,29076.000,0.300,4869.000,0.500,997.000,1.000,664.000,5.000,0
"07/04/06","06:10:38","AMMA06",67421.000,"cc",28338.563,6.00,2833.856,1,6,0.100,32069.000,0.200,28808.000,0.300,4841.000,0.500,1046.000,1.000,657.000,5.000,0
"07/04/06","06:10:44","AMMA06",67584.000,"cc",28317.154,6.00,2831.716,1,6,0.100,32048.000,0.200,28784.000,0.300,4974.000,0.500,1100.000,1.000,677.000,5.000,1.000
"07/04/06","06:10:50","AMMA06",67936.000,"cc",28332.148,6.00,2833.215,1,6,0.100,32523.000,0.200,28881.000,0.300,4869.000,0.500,1065.000,1.000,597.000,5.000,1.000
"07/04/06","06:10:56","AMMA06",67700.000,"cc",28266.891,6.00,2826.689,1,6,0.100,32460.000,0.200,28743.000,0.300,4832.000,0.500,1010.000,1.000,655.000,5.000,0
"07/04/06","06:11:02","AMMA06",67402.000,"cc",28307.725,6.00,2830.773,1,6,0.100,32322.000,0.200,28813.000,0.300,4689.000,0.500,972.000,1.000,606.000,5.000,0
"07/04/06","06:11:08","AMMA06",67385.000,"cc",28272.090,6.00,2827.209,1,6,0.100,32221.000,0.200,28755.000,0.300,4729.000,0.500,1014.000,1.000,666.000,5.000,0
"07/04/06","06:11:14","AMMA06",67911.000,"cc",28300.004,6.00,2830.001,1,6,0.100,32446.000,0.200,29003.000,0.300,4778.000,0.500,1060.000,1.000,624.000,5.000,0
"07/04/06","06:11:20","AMMA06",67875.000,"cc",28316.025,6.00,2831.603,1,6,0.100,32482.000,0.200,28944.000,0.300,4735.000,0.500,1029.000,1.000,685.000,5.000,0
"07/04/06","06:11:26","AMMA06",67568.000,"cc",28270.551,6.00,2827.055,1,6,0.100,32096.000,0.200,28993.000,0.300,4706.000,0.500,1107.000,1.000,666.000,5.000,0
"07/04/06","06:11:32","AMMA06",67906.000,"cc",28318.824,6.00,2831.883,1,6,0.100,32806.000,0.200,28791.000,0.300,4604.000,0.500,1051.000,1.000,654.000,5.000,0
"07/04/06","06:11:38","AMMA06",67290.000,"cc",28362.723,6.00,2836.273,1,6,0.100,32391.000,0.200,28587.000,0.300,4611.000,0.500,1033.000,1.000,668.000,5.000,0
"07/04/06","06:11:44","AMMA06",66999.000,"cc",28328.301,6.00,2832.830,1,6,0.100,32337.000,0.200,28404.000,0.300,4566.000,0.500,1064.000,1.000,628.000,5.000,0
"07/04/06","06:11:50","AMMA06",67076.000,"cc",28337.703,6.00,2833.771,1,6,0.100,32482.000,0.200,28349.000,0.300,4584.000,0.500,1023.000,1.000,637.000,5.000,1.000
"07/04/06","06:11:56","AMMA06",66998.000,"cc",28315.758,6.00,2831.576,1,6,0.100,32293.000,0.200,28428.000,0.300,4610.000,0.500,1027.000,1.000,640.000,5.000,0
"07/04/06","06:12:02","AMMA06",66667.000,"cc",28363.834,6.00,2836.384,1,6,0.100,32174.000,0.200,28230.000,0.300,4560.000,0.500,1034.000,1.000,668.000,5.000,1.000
"07/04/06","06:12:08","AMMA06",65836.000,"cc",28292.203,6.00,2829.221,1,6,0.100,32090.000,0.200,27687.000,0.300,4316.000,0.500,1042.000,1.000,701.000,5.000,0
"07/04/06","06:12:14","AMMA06",66269.000,"cc",28341.688,6.00,2834.169,1,6,0.100,32573.000,0.200,27735.000,0.300,4349.000,0.500,1008.000,1.000,604.000,5.000,0
"07/04/06","06:12:20","AMMA06",66218.000,"cc",28357.713,6.00,2835.772,1,6,0.100,31997.000,0.200,28095.000,0.300,4477.000,0.500,1019.000,1.000,630.000,5.000,0
"07/04/06","06:12:26","AMMA06",66225.000,"cc",28292.045,6.00,2829.205,1,6,0.100,32285.000,0.200,27801.000,0.300,4450.000,0.500,1055.000,1.000,634.000,5.000,0
"07/04/06","06:12:32","AMMA06",66627.000,"cc",28270.248,6.00,2827.025,1,6,0.100,32307.000,0.200,28202.000,0.300,4522.000,0.500,995.000,1.000,600.000,5.000,1.000
"07/04/06","06:12:38","AMMA06",66118.000,"cc",28296.377,6.00,2829.638,1,6,0.100,31966.000,0.200,28029.000,0.300,4407.000,0.500,1060.000,1.000,655.000,5.000,1.000
"07/04/06","06:12:44","AMMA06",66601.000,"cc",28331.781,6.00,2833.178,1,6,0.100,32236.000,0.200,28339.000,0.300,4444.000,0.500,975.000,1.000,607.000,5.000,0
"07/04/06","06:12:50","AMMA06",67836.000,"cc",28266.715,6.00,2826.672,1,6,0.100,32685.000,0.200,28498.000,0.300,4791.000,0.500,1162.000,1.000,699.000,5.000,1.000
"07/04/06","06:12:56","AMMA06",68079.000,"cc",28298.256,6.00,2829.826,1,6,0.100,32770.000,0.200,28804.000,0.300,4761.000,0.500,1061.000,1.000,683.000,5.000,0
"07/04/06","06:13:02","AMMA06",67838.000,"cc",28343.119,6.00,2834.312,1,6,0.100,32733.000,0.200,28629.000,0.300,4807.000,0.500,1060.000,1.000,607.000,5.000,2.000
"07/04/06","06:13:08","AMMA06",67830.000,"cc",28344.674,6.00,2834.468,1,6,0.100,32711.000,0.200,28718.000,0.300,4743.000,0.500,1007.000,1.000,651.000,5.000,0
"07/04/06","06:13:14","AMMA06",67644.000,"cc",28315.045,6.00,2831.505,1,6,0.100,32543.000,0.200,28474.000,0.300,4988.000,0.500,1006.000,1.000,631.000,5.000,2.000
"07/04/06","06:13:20","AMMA06",67735.000,"cc",28334.008,6.00,2833.401,1,6,0.100,32804.000,0.200,28304.000,0.300,4923.000,0.500,1083.000,1.000,621.000,5.000,0
"07/04/06","06:13:26","AMMA06",67600.000,"cc",28291.121,6.00,2829.112,1,6,0.100,32645.000,0.200,28536.000,0.300,4712.000,0.500,1045.000,1.000,662.000,5.000,0
"07/04/06","06:13:32","AMMA06",67367.000,"cc",28333.529,6.00,2833.353,1,6,0.100,32384.000,0.200,28541.000,0.300,4773.000,0.500,1044.000,1.000,624.000,5.000,1.000
"07/04/06","06:13:38","AMMA06",67966.000,"cc",28272.928,6.00,2827.293,1,6,0.100,33006.000,0.200,28563.000,0.300,4768.000,0.500,993.000,1.000,635.000,5.000,1.000
"07/04/06","06:13:44","AMMA06",67920.000,"cc",28295.473,6.00,2829.547,1,6,0.100,32918.000,0.200,28491.000,0.300,4830.000,0.500,1052.000,1.000,629.000,5.000,0
"07/04/06","06:13:50","AMMA06",67260.000,"cc",28336.768,6.00,2833.677,1,6,0.100,32599.000,0.200,28332.000,0.300,4678.000,0.500,1005.000,1.000,645.000,5.000,1.000
"07/04/06","06:13:56","AMMA06",67360.000,"cc",28335.885,6.00,2833.589,1,6,0.100,32541.000,0.200,28398.000,0.300,4803.000,0.500,1016.000,1.000,602.000,5.000,0
"07/04/06","06:14:02","AMMA06",67664.000,"cc",28359.996,6.00,2836.000,1,6,0.100,32604.000,0.200,28658.000,0.300,4735.000,0.500,1030.000,1.000,636.000,5.000,1.000